Location: S�tio Afonso Gruber
(26.1760°S, 49.5250°W)
Time: 07:53:03
(UTC+00:00)

KKS-1 - Visible Passes

Search period start: 27 November 2022 00:00
Search period end: 07 December 2022 00:00
Orbit: 634 x 648 km, 98.2° (Epoch: 26 November)

Date Brightness Start Highest point End Pass type
(mag) Time Alt. Az. Time Alt. Az. Time Alt. Az.
27 Nov ? 00:52:10 24° S 00:52:10 24° S 00:54:00 10° S visible
28 Nov ? 01:16:08 21° SSW 01:16:08 21° SSW 01:17:41 10° SSW visible
29 Nov ? 00:02:28 14° SE 00:02:28 14° SE 00:03:36 10° SSE visible
29 Nov ? 01:40:04 15° SW 01:40:04 15° SW 01:40:58 10° SW visible
30 Nov ? 00:26:25 21° SSE 00:26:25 21° SSE 00:28:19 10° SSE visible
01 Dec ? 00:50:22 26° S 00:50:22 26° S 00:52:25 10° S visible
02 Dec ? 01:14:19 24° SSW 01:14:19 24° SSW 01:16:09 10° SSW visible
03 Dec ? 00:00:40 14° SE 00:00:40 14° SE 00:01:55 10° SE visible
03 Dec ? 01:38:16 17° SW 01:38:16 17° SW 01:39:28 10° SW visible
04 Dec ? 00:24:37 22° SE 00:24:37 22° SE 00:26:42 10° SSE visible
05 Dec ? 00:48:34 28° S 00:48:34 28° S 00:50:50 10° S visible
06 Dec ? 01:12:32 27° SSW 01:12:32 27° SSW 01:14:36 10° SSW visible
